Location: Dob?e?
(49.9411°N, 15.1496°E)
Time: 07:34:51
(UTC+00:00)

GEOS 3 Rocket - Pass Details

Date: 03 October 2020
Orbit: 770 x 849 km, 115.0° (Epoch: 25 October)

Event Time Altitude Azimuth Distance (km) Brightness Sun altitude
Rises 17:06:59 0° 201° (SSW) 3,335 7.1 -6.3°
Reaches altitude 10° 17:11:33 10° 239° (WSW) 2,432 7.1 -7.1°
Maximum altitude 17:12:43 11° 252° (WSW) 2,391 7.4 -7.3°
Drops below altitude 10° 17:13:53 10° 264° (W) 2,446 7.8 -7.4°
Sets 17:18:33 0° 302° (WNW) 3,405 8.1 -8.2°
